Temp
9 9 9 9 9 9 9 9 9 9 9 9 9 8 9 8 9 8 8 8 8 8 8 8 8 8 9 9 11 14 15 13 14 13 16 16 17 17 17 18 19 19 21 22 23 21 22
9 9 9 9 9 8 9 9 9 8 9 9 9 8 8 8 8 8 8 8 8 8 8 8 8 8 9 9 13 14 13 13 14 13 16 16 18 19 19 19 18 20 21 21 22 21 22
9 9 9 9 8 8 8 8 8 8 8 9 8 8 8 8 8 8 8 8 8 8 7 8 8 8 9 11 13 12 13 12 13 14 17 17 19 19 20 18 20 20 19 19 21 21 21
9 9 9 8 8 8 8 8 8 8 9 8 8 8 8 7 8 8 8 7 7 7 8 8 8 9 9 12 12 12 12 12 13 14 17 17 18 19 19 19 20 19 19 18 20 20 21
8 8 8 8 8 8 8 8 8 8 8 8 8 7 8 7 7 7 7 7 7 7 7 7 8 9 10 13 12 13 11 12 14 14 16 17 17 17 17 17 17 18 17 18 19 21 20
8 8 8 8 8 8 7 7 8 8 8 8 8 7 7 7 7 7 8 8 8 8 8 9 10 9 11 13 13 13 12 12 14 14 14 15 15 15 16 16 15 16 17 18 18 20 20
8 8 8 8 8 8 7 7 8 8 7 7 7 7 7 7 7 8 8 8 9 9 10 8 10 11 10 11 14 13 12 13 13 13 13 14 14 14 16 17 19 19 18 18 20 20 19
8 8 8 7 7 7 7 7 7 7 7 7 7 7 7 7 7 8 8 10 9 8 9 12 12 11 11 11 12 12 13 13 12 13 15 13 14 16 17 18 19 19 19 18 20 19 19
7 7 7 7 7 7 7 7 7 7 7 7 7 7 7 7 8 8 9 8 8 8 9 10 9 10 11 11 12 11 14 11 13 14 15 14 15 18 18 18 18 19 18 18 19 18 18
7 7 7 7 7 7 7 7 7 7 7 7 6 7 7 7 7 8 9 8 8 8 9 9 10 11 12 12 11 11 11 12 12 14 15 15 16 15 17 17 18 18 19 19 18 16 16
7 7 7 7 7 7 7 7 7 6 6 6 6 7 7 8 9 10 8 7 8 8 11 8 9 10 11 11 11 10 10 11 11 15 13 12 14 14 15 17 19 18 18 17 17 16 16
7 7 7 7 7 7 6 6 6 6 6 6 6 6 7 9 8 9 8 8 8 8 11 9 10 10 12 13 12 11 11 12 11 12 12 11 12 14 14 15 17 18 16 16 16 15 13
6 6 7 7 6 6 6 6 6 6 6 6 6 7 7 8 10 8 8 9 9 11 10 10 12 13 12 12 12 11 10 10 10 11 11 10 10 11 12 13 14 16 15 13 12 11 13
6 6 6 6 6 6 6 6 6 6 6 6 8 9 9 9 9 8 8 9 11 11 12 12 13 13 12 13 13 11 10 11 12 12 11 12 11 10 10 13 13 15 16 13 14 13 13
6 6 6 6 6 6 6 6 6 6 6 7 9 9 9 10 8 7 8 10 10 10 14 14 15 14 14 14 14 14 12 13 12 13 12 12 11 10 10 12 12 14 13 15 14 16 12
6 6 6 6 6 6 6 6 6 5 8 8 7 11 12 10 8 7 10 11 11 13 15 16 15 15 15 15 15 16 16 16 15 15 16 14 12 10 10 11 11 12 13 14 12 13 15
6 6 6 6 6 5 5 5 5 5 7 9 8 12 9 8 8 9 10 9 14 15 15 15 16 16 16 16 16 17 16 16 17 16 16 17 14 11 10 10 11 11 12 14 14 13 13
5 5 5 5 5 5 5 5 5 5 5 8 10 12 10 9 12 13 12 12 12 15 15 15 16 16 17 16 16 16 16 16 17 17 16 15 14 12 14 14 15 12 13 15 13 14 12
5 5 5 5 5 5 5 5 5 5 5 5 10 12 11 11 13 13 14 14 15 15 15 16 15 15 16 16 15 16 15 15 16 16 15 15 12 10 13 13 14 14 15 14 15 13 13
5 5 5 5 5 5 5 5 5 5 5 6 10 10 13 12 14 14 15 15 15 14 15 15 15 16 15 15 16 15 15 15 15 15 14 15 14 12 12 13 13 12 14 15 12 10 13
5 5 5 5 5 5 5 4 4 5 7 6 11 10 10 12 14 14 14 15 15 15 14 15 15 16 16 15 16 15 15 14 15 13 15 14 10 10 14 14 12 12 13 13 11 13 11
5 5 5 5 5 4 5 4 4 5 8 7 7 7 8 10 13 14 12 15 15 15 14 15 14 16 16 16 16 15 15 15 15 14 15 14 10 11 10 14 13 12 12 13 13 13 13
6 5 5 5 4 4 4 4 4 5 6 7 6 7 7 9 14 14 14 15 15 14 14 15 15 16 16 15 15 15 16 16 16 14 14 13 10 9 11 12 12 10 12 13 13 13 13
5 5 5 4 4 4 4 4 4 4 5 6 5 5 7 10 12 13 13 13 13 14 13 15 15 15 14 15 15 16 16 16 16 16 15 14 12 9 9 10 9 14 15 15 14 15 14
6 5 5 5 4 4 4 4 4 4 5 5 4 5 5 7 10 11 10 11 11 13 13 14 14 13 15 15 15 13 13 14 15 15 14 15 13 11 11 9 13 15 14 14 14 14 15
5 5 5 5 4 4 4 4 4 4 4 5 4 4 5 5 8 9 9 10 9 12 13 14 13 13 13 13 14 13 13 14 13 13 14 14 14 11 12 12 12 15 15 16 16 13 16
5 5 5 5 4 4 4 4 4 4 4 4 4 4 5 6 9 8 9 8 10 10 11 13 12 12 13 12 12 12 12 15 13 13 12 12 12 11 12 12 12 16 15 16 13 13 13
6 5 5 5 4 4 4 4 4 4 4 4 4 4 4 4 6 7 8 7 8 9 9 9 11 12 11 11 12 12 12 13 14 14 12 12 12 12 12 12 10 14 14 14 13 13 12
5 5 5 5 4 4 4 4 4 4 4 4 4 4 3 3 5 5 5 6 6 7 6 8 9 10 10 11 12 12 12 13 13 12 13 12 12 12 12 12 14 15 15 14 14 13 13
Height
832 828 824 821 817 813 808 802 798 793 789 783 777 772 767 763 761 762 762 762 762 762 761 760 759 760 762 765 753 745 745 747 754 762 765 767 768 774 778 777 777 781 774 771 768 776 778
831 828 825 821 817 811 806 801 796 792 786 781 775 769 763 759 758 759 759 760 761 761 760 760 760 760 762 762 747 746 746 751 751 759 762 765 763 767 772 771 778 773 772 773 769 775 778
831 828 824 820 815 810 805 801 796 791 785 779 773 767 761 756 755 757 758 759 760 760 760 760 760 760 760 753 746 745 747 750 751 756 760 764 763 765 766 772 768 771 781 781 774 777 781
831 827 822 818 813 808 804 800 795 791 785 778 773 766 760 755 755 757 759 759 758 759 759 759 759 759 754 746 747 750 750 750 749 755 759 762 764 764 768 768 769 777 782 792 778 779 780
830 826 821 816 811 806 803 801 795 790 785 779 773 766 760 757 758 759 759 759 758 757 758 758 760 759 750 744 747 750 752 752 750 753 757 761 765 768 774 778 784 782 792 788 783 773 779
829 826 821 815 810 807 804 798 795 790 785 780 774 768 763 760 760 760 759 758 757 756 757 758 757 760 750 744 744 748 752 752 753 753 760 763 770 775 774 779 791 782 785 781 783 774 776
829 824 818 815 812 807 803 798 793 789 784 780 776 771 767 764 763 761 761 760 761 759 756 760 754 750 753 748 742 746 751 752 754 756 759 763 772 769 764 764 766 768 778 779 771 766 776
827 823 820 817 812 808 802 798 793 789 784 780 777 773 771 766 766 764 762 759 763 765 756 752 750 751 750 750 747 745 747 751 753 754 755 769 767 764 765 765 765 766 772 778 771 771 778
825 822 820 816 813 808 803 798 793 788 785 778 776 774 771 768 767 767 764 765 764 762 758 754 755 753 750 751 748 752 751 757 751 757 758 766 765 758 762 767 767 767 774 774 777 777 778
825 822 819 816 811 806 800 796 792 786 782 777 773 774 770 769 770 767 765 765 764 763 759 760 752 750 748 744 751 758 758 758 759 758 758 762 761 766 766 765 763 769 762 767 775 788 798
825 821 818 815 809 806 802 795 789 784 778 774 770 769 769 767 765 765 764 765 764 764 744 771 759 752 746 741 752 762 762 762 764 754 764 773 767 770 772 766 759 767 765 774 779 788 792
825 821 817 813 809 806 801 795 788 782 778 770 767 764 765 765 764 765 764 765 766 765 750 764 758 759 748 744 751 760 760 763 770 767 772 779 776 775 775 771 764 764 777 783 786 793 808
825 821 817 814 810 805 801 794 788 781 776 770 762 760 761 765 763 764 765 764 761 753 766 763 754 750 752 752 754 758 765 767 770 773 779 788 788 783 781 777 777 771 782 804 815 818 807
822 820 817 814 809 805 799 794 788 781 770 765 760 757 759 762 763 763 764 762 750 757 752 754 749 748 753 752 754 761 767 764 763 765 775 774 785 789 787 782 783 775 773 790 793 802 796
821 819 816 813 808 804 799 793 786 778 769 761 758 757 758 758 761 763 763 756 764 764 746 745 744 744 748 749 750 750 755 756 763 763 769 773 780 791 791 784 782 780 787 777 787 773 799
821 818 815 812 809 803 799 792 785 778 769 760 760 756 754 756 759 762 756 758 759 752 743 739 741 741 743 744 746 743 741 745 754 754 754 762 778 790 790 789 786 785 783 787 795 796 783
819 817 814 812 809 803 799 793 786 778 769 764 758 755 754 755 759 759 759 764 747 745 746 745 739 736 738 740 738 738 743 749 744 751 747 746 761 785 791 787 784 790 787 780 778 786 790
819 817 814 812 807 804 800 795 787 778 768 761 761 756 755 754 752 744 750 753 749 742 742 742 740 740 736 739 739 741 742 745 744 744 750 752 762 776 772 771 772 780 778 771 782 782 785
818 814 813 811 808 804 798 791 788 779 775 769 760 754 754 753 747 746 747 746 745 743 743 741 742 743 742 740 747 742 746 751 748 747 750 752 769 788 777 776 772 773 768 775 769 780 781
816 815 812 811 807 803 800 795 787 781 773 769 760 763 751 749 746 744 743 743 744 747 744 743 743 741 742 744 740 746 749 752 751 750 753 751 757 769 774 768 765 775 767 766 778 798 777
816 814 813 810 807 804 797 794 787 779 772 772 760 762 766 754 747 746 745 744 742 744 745 742 743 741 738 743 743 745 746 753 752 755 752 754 779 779 762 761 769 770 767 767 780 774 786
815 815 814 812 808 804 800 796 791 781 772 775 776 777 772 761 751 748 750 742 743 744 746 743 745 738 738 739 739 743 745 748 749 753 753 756 778 774 777 762 766 772 768 765 766 767 769
814 815 813 811 807 806 802 798 796 790 783 779 783 781 779 764 746 748 748 742 743 746 745 743 741 739 740 744 742 742 739 740 741 750 755 758 772 782 776 765 768 776 758 757 756 756 760
814 813 813 811 810 806 803 801 800 794 789 790 789 786 781 762 753 749 753 752 748 746 749 743 742 741 748 744 743 742 742 743 743 745 747 755 763 780 788 777 793 745 737 738 745 745 750
812 813 812 811 810 807 804 801 798 797 795 791 792 788 788 778 766 757 761 760 755 748 749 746 746 748 745 745 748 752 754 752 749 749 752 749 759 768 774 783 751 734 740 742 742 743 738
811 812 813 812 810 809 806 804 803 798 796 792 793 790 789 789 775 771 769 765 764 751 747 746 749 749 749 750 749 752 754 749 753 754 752 751 754 768 765 767 761 736 735 732 734 747 728
811 811 811 811 809 808 807 805 801 797 797 795 793 793 791 788 776 777 771 771 765 762 755 747 750 752 751 751 754 753 753 742 749 749 758 761 760 770 765 761 753 732 734 733 746 747 736
808 808 809 810 808 805 806 805 802 800 797 795 795 792 792 789 781 778 776 775 773 767 764 762 755 752 753 755 751 750 753 747 744 740 749 754 757 756 758 761 769 732 736 741 740 739 740
807 807 808 807 807 806 805 804 801 798 797 795 794 791 791 791 782 777 775 775 776 776 777 768 764 759 758 753 747 744 747 741 741 749 737 752 745 748 747 749 734 731 731 733 734 738 740
Wind_Speed
20 21 23 24 25 25 25 26 26 27 30 31 30 26 25 20 14 14 11 8 9 8 8 7 6 3 4 4 11 6 17 29 27 25 22 14 19 15 13 15 9 17 12 16 18 8 2
20 21 23 24 26 23 25 25 28 29 30 31 31 27 26 20 13 10 7 6 7 7 4 6 5 3 4 10 13 9 5 19 22 31 23 17 15 15 9 10 14 9 14 11 10 7 1
20 21 23 25 24 24 24 26 28 29 31 32 32 29 28 20 9 7 4 5 5 6 4 6 4 5 9 14 4 7 10 2 20 28 18 20 17 12 3 7 11 4 6 12 5 6 2
19 20 22 24 24 25 25 26 28 30 31 31 34 32 27 16 3 3 3 3 5 8 9 8 4 6 6 9 16 11 7 12 9 24 21 22 18 5 2 1 3 8 4 9 9 9 5
18 19 21 22 23 24 25 26 27 30 31 31 33 31 24 9 5 2 2 4 8 10 7 5 5 7 5 2 14 13 6 8 3 25 20 17 3 2 4 6 4 7 8 11 10 13 6
17 18 20 22 23 25 26 25 26 28 29 29 30 29 22 7 5 3 3 6 2 5 3 5 6 4 6 5 7 14 11 13 5 17 7 8 4 4 5 8 10 16 15 13 13 13 13
16 17 20 22 23 24 26 25 25 26 26 27 27 24 22 6 5 4 6 4 2 2 4 0 5 3 8 17 11 18 16 8 6 8 6 7 5 15 20 17 6 9 11 13 13 9 12
15 17 20 22 23 24 25 26 24 25 25 25 24 23 17 9 4 4 4 1 3 2 3 1 4 3 10 4 4 6 7 4 7 12 10 6 12 11 12 12 15 9 6 14 2 8 5
14 17 19 21 23 24 24 25 26 25 24 24 22 20 17 8 7 6 6 6 4 6 2 5 2 5 2 3 4 4 4 2 13 16 13 9 6 11 16 13 13 12 8 7 4 6 1
13 16 19 21 22 23 23 24 25 25 24 24 23 17 14 7 4 3 1 3 5 5 1 5 5 2 2 2 6 3 5 4 2 14 12 5 4 10 9 15 14 11 7 7 6 5 3
13 15 18 20 23 24 25 25 25 25 24 24 24 19 10 5 7 3 2 1 3 3 2 4 6 10 6 2 10 6 4 4 3 8 4 2 7 8 8 12 9 6 9 7 4 2 4
12 14 17 19 22 25 25 26 26 27 27 26 25 17 6 3 7 2 3 3 2 1 7 3 1 4 3 4 4 5 4 6 3 6 9 4 5 2 3 6 3 8 9 8 3 0 2
11 13 16 19 22 25 27 28 29 29 31 31 25 12 2 2 3 2 3 4 2 5 3 3 1 5 7 2 5 1 4 4 2 6 3 4 3 2 2 5 2 7 9 3 1 1 4
9 12 15 19 21 25 28 30 31 32 33 38 18 3 1 5 2 3 3 2 5 3 4 3 2 6 3 1 4 5 8 3 6 7 3 3 3 2 4 1 5 5 7 3 5 4 4
9 12 14 18 21 24 28 31 33 34 39 29 7 3 2 2 5 4 3 3 2 2 3 2 5 3 4 3 3 6 7 5 5 3 3 4 3 2 1 4 5 3 1 3 3 3 3
9 12 14 16 21 24 27 29 34 36 39 21 9 4 3 3 8 4 1 4 2 4 4 4 1 1 4 6 5 6 2 4 7 7 7 7 5 1 4 3 5 3 4 3 1 2 4
8 11 14 16 21 23 27 30 32 35 39 16 4 3 4 6 8 3 2 2 6 1 3 4 3 2 3 3 2 2 5 2 3 4 5 3 4 6 5 4 5 1 1 4 2 2 2
8 11 15 17 19 23 27 30 31 32 36 16 5 2 5 9 2 3 2 4 1 1 2 1 2 5 1 3 1 2 6 5 4 1 3 3 4 3 2 6 7 6 6 3 3 4 1
6 10 14 18 20 22 24 27 30 31 28 11 4 2 4 3 2 2 1 3 2 2 2 1 2 2 2 2 1 3 5 0 2 3 2 4 3 3 2 2 4 4 7 8 0 3 3
4 9 12 16 20 21 24 28 30 33 24 5 2 3 1 3 1 4 4 4 3 1 2 2 2 2 4 3 2 3 5 2 1 3 3 3 2 2 2 2 3 4 7 8 5 3 3
4 8 11 16 19 18 21 25 29 34 17 6 1 3 2 3 3 5 2 3 4 3 3 2 3 5 4 3 4 4 7 4 4 4 1 3 3 3 2 4 4 2 5 8 7 6 4
4 8 11 16 17 18 20 24 27 31 16 7 3 3 5 5 3 5 4 3 2 2 2 4 4 4 3 2 2 3 5 5 4 5 4 2 2 2 2 4 2 5 7 8 9 10 10
4 6 10 13 15 17 19 20 24 29 21 8 7 5 2 7 1 3 4 5 4 2 2 4 7 2 4 6 7 5 5 4 2 6 6 5 4 2 0 3 3 6 14 16 11 9 15
3 5 8 11 14 16 15 18 21 20 17 10 8 3 3 3 3 4 6 5 6 3 5 4 4 3 1 2 2 0 2 4 1 1 1 3 5 3 1 1 1 5 2 2 18 9 10
1 3 7 11 11 12 15 14 15 17 17 10 10 4 3 3 8 8 11 6 8 5 3 4 5 3 1 2 3 3 2 2 4 2 5 5 4 2 2 3 8 6 5 3 5 8 14
2 3 7 13 11 11 13 15 14 14 13 9 9 8 2 3 4 7 7 5 3 5 4 4 3 4 3 2 1 1 3 5 4 5 3 3 4 3 2 3 3 2 3 0 2 3 5
3 4 7 11 10 11 13 13 13 10 10 11 3 10 4 2 1 5 3 4 5 5 3 2 3 2 1 1 2 3 2 2 3 4 4 3 3 6 5 3 6 2 6 3 1 2 6
4 5 8 8 8 9 11 13 13 12 9 5 2 5 4 3 7 4 4 4 5 3 3 5 3 2 2 2 2 3 3 4 3 5 6 7 5 4 4 3 6 6 4 2 4 4 6
4 6 5 5 8 9 12 13 11 10 11 8 4 4 1 4 5 13 18 18 12 6 3 3 2 4 4 3 2 2 2 2 4 3 6 4 6 4 6 5 3 4 0 5 6 5 4
Wind_Direction
357 352 352 353 351 349 344 347 345 341 334 331 331 326 321 310 288 290 288 291 299 303 314 319 303 256 170 214 262 317 183 184 189 192 200 210 185 187 193 196 216 222 246 214 249 101 280
357 354 352 353 351 349 345 347 344 341 339 339 339 334 329 319 288 288 285 282 305 313 304 318 297 225 204 239 257 239 187 196 184 193 191 205 194 190 194 188 212 216 236 285 213 132 274
357 354 355 356 353 349 347 345 347 346 343 345 344 340 336 327 288 293 289 293 291 312 307 313 285 213 230 231 14 136 180 173 183 189 187 198 216 205 165 234 189 112 167 257 265 131 177
357 356 356 357 354 347 347 348 350 348 347 350 350 347 342 346 303 291 305 293 292 295 280 303 268 245 267 262 253 277 240 278 239 194 200 198 230 240 13 98 186 195 235 200 210 166 161
357 357 356 355 354 352 351 351 352 351 350 354 357 356 356 25 45 6 311 306 313 288 273 256 218 221 261 227 233 230 219 253 199 191 206 181 161 259 185 167 173 184 204 222 186 204 155
355 355 355 354 357 354 353 353 353 354 354 356 1 5 6 48 28 42 5 329 330 58 167 194 241 234 274 237 212 204 216 241 194 183 175 148 151 180 191 180 190 190 210 202 217 186 203
353 355 353 355 357 358 354 353 353 354 355 355 1 6 11 19 26 40 5 315 278 199 234 95 314 262 271 322 165 162 197 208 159 186 153 174 162 197 193 202 204 193 197 246 203 160 184
353 354 355 354 357 357 355 353 352 353 355 353 357 3 1 16 2 349 321 37 61 289 299 281 322 267 265 273 176 149 160 161 176 145 145 157 209 205 198 215 224 240 216 218 258 139 181
349 356 355 356 356 356 357 352 352 351 351 345 352 357 358 24 32 9 29 30 359 2 321 29 328 306 328 118 177 122 143 65 163 162 179 160 185 211 197 221 223 222 235 181 184 130 359
349 356 355 356 354 354 356 354 351 348 348 343 343 351 345 335 297 248 351 351 3 10 284 8 352 41 258 218 119 46 33 47 61 168 174 183 150 201 223 222 221 213 204 209 114 122 237
349 355 355 357 355 353 354 354 350 346 344 340 335 335 323 315 307 235 209 350 7 19 103 345 314 307 313 340 145 44 6 70 15 142 93 132 159 185 211 218 212 202 103 94 100 227 347
348 354 356 355 357 352 352 351 349 345 341 338 334 332 320 305 241 195 178 273 251 249 55 14 90 303 298 23 62 119 81 64 356 77 49 30 5 147 221 306 289 128 101 101 95 317 264
348 351 357 353 354 353 351 350 349 346 341 336 332 320 225 310 357 184 242 253 259 39 191 346 128 113 81 35 98 119 56 114 183 127 112 18 357 9 209 117 116 182 150 121 160 188 227
345 350 358 351 352 352 350 350 350 345 343 341 333 335 78 196 273 246 250 237 51 324 90 171 145 120 85 24 85 141 153 124 142 106 122 154 154 346 350 139 189 203 190 154 189 188 177
347 351 356 352 349 352 352 349 348 346 345 345 349 118 166 187 180 197 250 55 93 250 1 145 190 133 123 140 191 216 142 123 143 159 137 163 66 100 316 319 339 186 198 17 319 209 95
349 349 354 349 350 350 352 351 348 347 346 352 328 260 152 221 154 183 292 93 175 213 333 275 230 165 129 134 188 204 117 86 130 182 223 157 114 124 129 253 11 6 345 161 220 211 223
343 352 353 351 351 351 352 350 349 348 348 357 316 286 137 146 148 225 92 186 147 164 324 323 7 135 136 113 211 112 67 111 109 160 261 193 115 154 147 226 153 113 190 222 311 159 209
353 359 356 353 351 350 352 351 349 350 350 10 308 299 184 144 248 251 132 187 299 78 183 63 332 347 121 140 142 99 104 64 30 206 110 357 102 127 122 101 152 194 216 254 161 223 222
1 354 355 356 354 352 351 352 348 351 354 326 312 286 211 181 320 50 143 153 298 206 75 325 115 336 290 218 113 82 89 204 26 19 82 174 141 103 142 173 181 216 187 224 79 35 215
357 358 354 355 355 353 352 354 351 347 352 332 287 346 181 217 247 305 196 187 193 130 274 302 118 207 188 162 328 135 114 124 11 68 349 338 123 99 139 118 123 188 203 208 139 138 194
350 359 359 356 360 359 357 357 356 356 359 327 5 58 19 316 70 324 339 12 249 218 230 267 208 264 228 154 175 174 115 143 181 160 202 337 136 102 287 107 110 213 219 217 194 212 177
358 13 1 356 360 359 1 1 1 6 17 70 13 1 347 288 292 271 149 187 309 99 277 183 265 195 241 307 351 151 168 183 190 161 189 113 146 108 268 167 249 242 241 236 218 216 247
30 22 3 2 1 3 5 4 5 11 24 41 5 338 294 286 287 289 7 29 66 354 143 293 327 241 224 51 20 350 37 345 61 155 205 153 121 109 240 56 292 269 225 215 210 190 210
70 18 2 4 3 4 6 7 3 12 31 28 25 315 328 320 322 3 11 352 323 28 330 116 313 314 31 223 215 175 72 47 82 343 250 194 129 110 224 351 270 240 80 211 212 208 203
129 332 0 357 358 1 8 6 20 9 23 32 14 30 3 298 344 3 3 328 313 266 238 302 77 4 270 287 155 156 174 180 206 177 249 223 135 203 201 222 290 280 178 180 170 235 217
228 327 354 353 345 352 359 358 357 7 13 37 17 12 293 313 33 343 327 320 311 340 169 161 83 334 35 264 261 221 213 222 162 164 284 245 189 172 156 249 259 89 125 186 107 271 277
245 308 317 337 339 349 351 358 5 4 4 12 337 6 301 292 345 356 353 335 327 331 289 94 146 177 360 230 239 212 239 352 220 197 165 194 218 210 225 268 285 158 137 160 169 200 39
246 296 305 323 335 348 341 340 345 360 355 35 318 7 19 306 291 289 293 312 335 304 311 350 312 208 169 249 201 201 229 215 258 192 167 179 187 193 204 232 259 120 95 229 143 97 108
260 292 294 303 329 332 336 342 354 345 345 323 280 295 281 223 271 294 280 269 279 308 318 294 317 318 356 267 252 217 234 269 173 261 155 196 199 184 186 212 165 205 31 110 124 139 150